Netzbetreibername:;Getreidem�hle Zwiefalten e.G.;;
Netz- oder Umspannebene:;Mittelspannung MS;;
Lastgangtyp:;H�chstentnahmelast;;
gesetzliche Grundlage:;� 23c Abs. 3 Nr. 5 EnWG;;
Einheit:;kW;;
Betrachtungszeitraum:;01.01.2023;31.12.2023;
;;;
Datum;von;bis;Wert
01.01.2023;00:00;00:15;500
01.01.2023;00:15;00:30;484
01.01.2023;00:30;00:45;488
01.01.2023;00:45;01:00;444
01.01.2023;01:00;01:15;488
01.01.2023;01:15;01:30;440
01.01.2023;01:30;01:45;460
01.01.2023;01:45;02:00;436
01.01.2023;02:00;02:15;392
01.01.2023;02:15;02:30;408
01.01.2023;02:30;02:45;392
01.01.2023;02:45;03:00;368
01.01.2023;03:00;03:15;372
01.01.2023;03:15;03:30;320
01.01.2023;03:30;03:45;344
01.01.2023;03:45;04:00;344
01.01.2023;04:00;04:15;308
01.01.2023;04:15;04:30;324
01.01.2023;04:30;04:45;308
01.01.2023;04:45;05:00;316
01.01.2023;05:00;05:15;336
01.01.2023;05:15;05:30;328
01.01.2023;05:30;05:45;364
01.01.2023;05:45;06:00;364
01.01.2023;06:00;06:15;284
01.01.2023;06:15;06:30;288
01.01.2023;06:30;06:45;300
01.01.2023;06:45;07:00;300
01.01.2023;07:00;07:15;276
01.01.2023;07:15;07:30;304
01.01.2023;07:30;07:45;284
01.01.2023;07:45;08:00;304
01.01.2023;08:00;08:15;316
01.01.2023;08:15;08:30;404
01.01.2023;08:30;08:45;360
01.01.2023;08:45;09:00;316
01.01.2023;09:00;09:15;336
01.01.2023;09:15;09:30;280
01.01.2023;09:30;09:45;292
01.01.2023;09:45;10:00;272
01.01.2023;10:00;10:15;276
01.01.2023;10:15;10:30;244
01.01.2023;10:30;10:45;196
01.01.2023;10:45;11:00;144
01.01.2023;11:00;11:15;108
01.01.2023;11:15;11:30;140
01.01.2023;11:30;11:45;172
01.01.2023;11:45;12:00;140
01.01.2023;12:00;12:15;52
01.01.2023;12:15;12:30;16
01.01.2023;12:30;12:45;24
01.01.2023;12:45;13:00;16
01.01.2023;13:00;13:15;20
01.01.2023;13:15;13:30;24
01.01.2023;13:30;13:45;-24
01.01.2023;13:45;14:00;-76
01.01.2023;14:00;14:15;-48
01.01.2023;14:15;14:30;8
01.01.2023;14:30;14:45;80
01.01.2023;14:45;15:00;96
01.01.2023;15:00;15:15;116
01.01.2023;15:15;15:30;176
01.01.2023;15:30;15:45;224
01.01.2023;15:45;16:00;272
01.01.2023;16:00;16:15;352
01.01.2023;16:15;16:30;372
01.01.2023;16:30;16:45;372
01.01.2023;16:45;17:00;380
01.01.2023;17:00;17:15;432
01.01.2023;17:15;17:30;428
01.01.2023;17:30;17:45;424
01.01.2023;17:45;18:00;428
01.01.2023;18:00;18:15;448
01.01.2023;18:15;18:30;476
01.01.2023;18:30;18:45;480
01.01.2023;18:45;19:00;476
01.01.2023;19:00;19:15;452
01.01.2023;19:15;19:30;508
01.01.2023;19:30;19:45;524
01.01.2023;19:45;20:00;516
01.01.2023;20:00;20:15;508
01.01.2023;20:15;20:30;468
01.01.2023;20:30;20:45;480
01.01.2023;20:45;21:00;456
01.01.2023;21:00;21:15;456
01.01.2023;21:15;21:30;432
01.01.2023;21:30;21:45;460
01.01.2023;21:45;22:00;444
01.01.2023;22:00;22:15;448
01.01.2023;22:15;22:30;436
01.01.2023;22:30;22:45;424
01.01.2023;22:45;23:00;536
01.01.2023;23:00;23:15;604
01.01.2023;23:15;23:30;616
01.01.2023;23:30;23:45;584
02.01.2023;23:45;00:00;572
02.01.2023;00:00;00:15;516
02.01.2023;00:15;00:30;460
02.01.2023;00:30;00:45;432
02.01.2023;00:45;01:00;412
02.01.2023;01:00;01:15;400
02.01.2023;01:15;01:30;396
02.01.2023;01:30;01:45;396
02.01.2023;01:45;02:00;332
02.01.2023;02:00;02:15;368
02.01.2023;02:15;02:30;340
02.01.2023;02:30;02:45;360
02.01.2023;02:45;03:00;344
02.01.2023;03:00;03:15;360
02.01.2023;03:15;03:30;328
02.01.2023;03:30;03:45;320
02.01.2023;03:45;04:00;316
02.01.2023;04:00;04:15;308
02.01.2023;04:15;04:30;328
02.01.2023;04:30;04:45;324
02.01.2023;04:45;05:00;276
02.01.2023;05:00;05:15;260
02.01.2023;05:15;05:30;268
02.01.2023;05:30;05:45;304
02.01.2023;05:45;06:00;332
02.01.2023;06:00;06:15;388
02.01.2023;06:15;06:30;372
02.01.2023;06:30;06:45;372
02.01.2023;06:45;07:00;372
02.01.2023;07:00;07:15;392
02.01.2023;07:15;07:30;400
02.01.2023;07:30;07:45;384
02.01.2023;07:45;08:00;404
02.01.2023;08:00;08:15;416
02.01.2023;08:15;08:30;496
02.01.2023;08:30;08:45;476
02.01.2023;08:45;09:00;464
02.01.2023;09:00;09:15;468
02.01.2023;09:15;09:30;492
02.01.2023;09:30;09:45;480
02.01.2023;09:45;10:00;472
02.01.2023;10:00;10:15;500
02.01.2023;10:15;10:30;536
02.01.2023;10:30;10:45;508
02.01.2023;10:45;11:00;480
02.01.2023;11:00;11:15;484
02.01.2023;11:15;11:30;460
02.01.2023;11:30;11:45;492
02.01.2023;11:45;12:00;456
02.01.2023;12:00;12:15;428
02.01.2023;12:15;12:30;364
02.01.2023;12:30;12:45;320
02.01.2023;12:45;13:00;300
02.01.2023;13:00;13:15;252
02.01.2023;13:15;13:30;304
02.01.2023;13:30;13:45;204
02.01.2023;13:45;14:00;212
02.01.2023;14:00;14:15;208
02.01.2023;14:15;14:30;220
02.01.2023;14:30;14:45;216
02.01.2023;14:45;15:00;304
02.01.2023;15:00;15:15;416
02.01.2023;15:15;15:30;412
02.01.2023;15:30;15:45;424
02.01.2023;15:45;16:00;444
02.01.2023;16:00;16:15;504
02.01.2023;16:15;16:30;532
02.01.2023;16:30;16:45;520
02.01.2023;16:45;17:00;560
02.01.2023;17:00;17:15;556
02.01.2023;17:15;17:30;556
02.01.2023;17:30;17:45;568
02.01.2023;17:45;18:00;552
02.01.2023;18:00;18:15;596
02.01.2023;18:15;18:30;560
02.01.2023;18:30;18:45;580
02.01.2023;18:45;19:00;568
02.01.2023;19:00;19:15;556
02.01.2023;19:15;19:30;556
02.01.2023;19:30;19:45;532
02.01.2023;19:45;20:00;572
02.01.2023;20:00;20:15;552
02.01.2023;20:15;20:30;556
02.01.2023;20:30;20:45;552
02.01.2023;20:45;21:00;512
02.01.2023;21:00;21:15;528
02.01.2023;21:15;21:30;476
02.01.2023;21:30;21:45;492
02.01.2023;21:45;22:00;464
02.01.2023;22:00;22:15;444
02.01.2023;22:15;22:30;464
02.01.2023;22:30;22:45;404
02.01.2023;22:45;23:00;548
02.01.2023;23:00;23:15;576
02.01.2023;23:15;23:30;580
02.01.2023;23:30;23:45;556
03.01.2023;23:45;00:00;532
03.01.2023;00:00;00:15;480
03.01.2023;00:15;00:30;428
03.01.2023;00:30;00:45;416
03.01.2023;00:45;01:00;380
03.01.2023;01:00;01:15;368
03.01.2023;01:15;01:30;356
03.01.2023;01:30;01:45;324
03.01.2023;01:45;02:00;312
03.01.2023;02:00;02:15;312
03.01.2023;02:15;02:30;344
03.01.2023;02:30;02:45;316
03.01.2023;02:45;03:00;308
03.01.2023;03:00;03:15;348
03.01.2023;03:15;03:30;332
03.01.2023;03:30;03:45;328
03.01.2023;03:45;04:00;324
03.01.2023;04:00;04:15;320
03.01.2023;04:15;04:30;352
03.01.2023;04:30;04:45;340
03.01.2023;04:45;05:00;284
03.01.2023;05:00;05:15;260
03.01.2023;05:15;05:30;308
03.01.2023;05:30;05:45;404
03.01.2023;05:45;06:00;416
03.01.2023;06:00;06:15;364
03.01.2023;06:15;06:30;388
03.01.2023;06:30;06:45;372
03.01.2023;06:45;07:00;372
03.01.2023;07:00;07:15;388
03.01.2023;07:15;07:30;384
03.01.2023;07:30;07:45;404
03.01.2023;07:45;08:00;420
03.01.2023;08:00;08:15;412
03.01.2023;08:15;08:30;428
03.01.2023;08:30;08:45;428
03.01.2023;08:45;09:00;468
03.01.2023;09:00;09:15;524
03.01.2023;09:15;09:30;500
03.01.2023;09:30;09:45;488
03.01.2023;09:45;10:00;464
03.01.2023;10:00;10:15;504
03.01.2023;10:15;10:30;496
03.01.2023;10:30;10:45;484
03.01.2023;10:45;11:00;456
03.01.2023;11:00;11:15;460
03.01.2023;11:15;11:30;472
03.01.2023;11:30;11:45;508
03.01.2023;11:45;12:00;544
03.01.2023;12:00;12:15;504
03.01.2023;12:15;12:30;468
03.01.2023;12:30;12:45;480
03.01.2023;12:45;13:00;460
03.01.2023;13:00;13:15;416
03.01.2023;13:15;13:30;496
03.01.2023;13:30;13:45;468
03.01.2023;13:45;14:00;488
03.01.2023;14:00;14:15;344
03.01.2023;14:15;14:30;148
03.01.2023;14:30;14:45;288
03.01.2023;14:45;15:00;496
03.01.2023;15:00;15:15;508
03.01.2023;15:15;15:30;448
03.01.2023;15:30;15:45;464
03.01.2023;15:45;16:00;488
03.01.2023;16:00;16:15;556
03.01.2023;16:15;16:30;572
03.01.2023;16:30;16:45;548
03.01.2023;16:45;17:00;572
03.01.2023;17:00;17:15;588
03.01.2023;17:15;17:30;620
03.01.2023;17:30;17:45;608
03.01.2023;17:45;18:00;608
03.01.2023;18:00;18:15;656
03.01.2023;18:15;18:30;612
03.01.2023;18:30;18:45;588
03.01.2023;18:45;19:00;612
03.01.2023;19:00;19:15;536
03.01.2023;19:15;19:30;556
03.01.2023;19:30;19:45;564
03.01.2023;19:45;20:00;560
03.01.2023;20:00;20:15;560
03.01.2023;20:15;20:30;504
03.01.2023;20:30;20:45;472
03.01.2023;20:45;21:00;508
03.01.2023;21:00;21:15;436
03.01.2023;21:15;21:30;428
03.01.2023;21:30;21:45;400
03.01.2023;21:45;22:00;368
03.01.2023;22:00;22:15;440
03.01.2023;22:15;22:30;436
03.01.2023;22:30;22:45;424
03.01.2023;22:45;23:00;556
03.01.2023;23:00;23:15;604
03.01.2023;23:15;23:30;620
03.01.2023;23:30;23:45;592
04.01.2023;23:45;00:00;588
04.01.2023;00:00;00:15;588
04.01.2023;00:15;00:30;540
04.01.2023;00:30;00:45;532
04.01.2023;00:45;01:00;500
04.01.2023;01:00;01:15;496
04.01.2023;01:15;01:30;480
04.01.2023;01:30;01:45;492
04.01.2023;01:45;02:00;492
04.01.2023;02:00;02:15;472
04.01.2023;02:15;02:30;424
04.01.2023;02:30;02:45;380
04.01.2023;02:45;03:00;348
04.01.2023;03:00;03:15;336
04.01.2023;03:15;03:30;324
04.01.2023;03:30;03:45;360
04.01.2023;03:45;04:00;316
04.01.2023;04:00;04:15;360
04.01.2023;04:15;04:30;328
04.01.2023;04:30;04:45;368
04.01.2023;04:45;05:00;276
04.01.2023;05:00;05:15;288
04.01.2023;05:15;05:30;292
04.01.2023;05:30;05:45;344
04.01.2023;05:45;06:00;368
04.01.2023;06:00;06:15;352
04.01.2023;06:15;06:30;368
04.01.2023;06:30;06:45;388
04.01.2023;06:45;07:00;408
04.01.2023;07:00;07:15;396
04.01.2023;07:15;07:30;388
04.01.2023;07:30;07:45;440
04.01.2023;07:45;08:00;432
04.01.2023;08:00;08:15;432
04.01.2023;08:15;08:30;440
04.01.2023;08:30;08:45;436
04.01.2023;08:45;09:00;432
04.01.2023;09:00;09:15;452
04.01.2023;09:15;09:30;432
04.01.2023;09:30;09:45;552
04.01.2023;09:45;10:00;532
04.01.2023;10:00;10:15;568
04.01.2023;10:15;10:30;608
04.01.2023;10:30;10:45;560
04.01.2023;10:45;11:00;548
04.01.2023;11:00;11:15;532
04.01.2023;11:15;11:30;568
04.01.2023;11:30;11:45;624
04.01.2023;11:45;12:00;604
04.01.2023;12:00;12:15;644
04.01.2023;12:15;12:30;580
04.01.2023;12:30;12:45;508
04.01.2023;12:45;13:00;480
04.01.2023;13:00;13:15;416
04.01.2023;13:15;13:30;440
04.01.2023;13:30;13:45;472
04.01.2023;13:45;14:00;524
04.01.2023;14:00;14:15;480
04.01.2023;14:15;14:30;484
04.01.2023;14:30;14:45;492
04.01.2023;14:45;15:00;512
04.01.2023;15:00;15:15;528
04.01.2023;15:15;15:30;512
04.01.2023;15:30;15:45;528
04.01.2023;15:45;16:00;552
04.01.2023;16:00;16:15;596
04.01.2023;16:15;16:30;596
04.01.2023;16:30;16:45;608
04.01.2023;16:45;17:00;656
04.01.2023;17:00;17:15;636
04.01.2023;17:15;17:30;636
04.01.2023;17:30;17:45;604
04.01.2023;17:45;18:00;624
04.01.2023;18:00;18:15;584
04.01.2023;18:15;18:30;620
04.01.2023;18:30;18:45;588
04.01.2023;18:45;19:00;580
04.01.2023;19:00;19:15;544
04.01.2023;19:15;19:30;544
04.01.2023;19:30;19:45;520
04.01.2023;19:45;20:00;544
04.01.2023;20:00;20:15;576
04.01.2023;20:15;20:30;508
04.01.2023;20:30;20:45;528
04.01.2023;20:45;21:00;496
04.01.2023;21:00;21:15;452
04.01.2023;21:15;21:30;432
04.01.2023;21:30;21:45;388
04.01.2023;21:45;22:00;424
04.01.2023;22:00;22:15;444
04.01.2023;22:15;22:30;448
04.01.2023;22:30;22:45;412
04.01.2023;22:45;23:00;532
04.01.2023;23:00;23:15;596
04.01.2023;23:15;23:30;536
04.01.2023;23:30;23:45;568
05.01.2023;23:45;00:00;528
05.01.2023;00:00;00:15;556
05.01.2023;00:15;00:30;520
05.01.2023;00:30;00:45;508
05.01.2023;00:45;01:00;476
05.01.2023;01:00;01:15;456
05.01.2023;01:15;01:30;388
05.01.2023;01:30;01:45;340
05.01.2023;01:45;02:00;344
05.01.2023;02:00;02:15;344
05.01.2023;02:15;02:30;344
05.01.2023;02:30;02:45;348
05.01.2023;02:45;03:00;320
05.01.2023;03:00;03:15;332
05.01.2023;03:15;03:30;340
05.01.2023;03:30;03:45;320
05.01.2023;03:45;04:00;344
05.01.2023;04:00;04:15;344
05.01.2023;04:15;04:30;336
05.01.2023;04:30;04:45;364
05.01.2023;04:45;05:00;292
05.01.2023;05:00;05:15;280
05.01.2023;05:15;05:30;280
05.01.2023;05:30;05:45;332
05.01.2023;05:45;06:00;336
05.01.2023;06:00;06:15;372
05.01.2023;06:15;06:30;344
05.01.2023;06:30;06:45;372
05.01.2023;06:45;07:00;384
05.01.2023;07:00;07:15;412
05.01.2023;07:15;07:30;432
05.01.2023;07:30;07:45;416
05.01.2023;07:45;08:00;400
05.01.2023;08:00;08:15;396
05.01.2023;08:15;08:30;428
05.01.2023;08:30;08:45;444
05.01.2023;08:45;09:00;472
05.01.2023;09:00;09:15;464
05.01.2023;09:15;09:30;432
05.01.2023;09:30;09:45;444
05.01.2023;09:45;10:00;576
05.01.2023;10:00;10:15;564
05.01.2023;10:15;10:30;544
05.01.2023;10:30;10:45;508
05.01.2023;10:45;11:00;468
05.01.2023;11:00;11:15;564
05.01.2023;11:15;11:30;532
05.01.2023;11:30;11:45;508
05.01.2023;11:45;12:00;488
05.01.2023;12:00;12:15;448
05.01.2023;12:15;12:30;332
05.01.2023;12:30;12:45;452
05.01.2023;12:45;13:00;436
05.01.2023;13:00;13:15;452
05.01.2023;13:15;13:30;456
05.01.2023;13:30;13:45;452
05.01.2023;13:45;14:00;472
05.01.2023;14:00;14:15;512
05.01.2023;14:15;14:30;484
05.01.2023;14:30;14:45;516
05.01.2023;14:45;15:00;544
05.01.2023;15:00;15:15;524
05.01.2023;15:15;15:30;548
05.01.2023;15:30;15:45;548
05.01.2023;15:45;16:00;572
05.01.2023;16:00;16:15;616
05.01.2023;16:15;16:30;624
05.01.2023;16:30;16:45;608
05.01.2023;16:45;17:00;648
05.01.2023;17:00;17:15;672
05.01.2023;17:15;17:30;580
05.01.2023;17:30;17:45;632
05.01.2023;17:45;18:00;592
05.01.2023;18:00;18:15;596
05.01.2023;18:15;18:30;620
05.01.2023;18:30;18:45;636
05.01.2023;18:45;19:00;640
05.01.2023;19:00;19:15;604
05.01.2023;19:15;19:30;584
05.01.2023;19:30;19:45;568
05.01.2023;19:45;20:00;512
05.01.2023;20:00;20:15;512
05.01.2023;20:15;20:30;492
05.01.2023;20:30;20:45;488
05.01.2023;20:45;21:00;472
05.01.2023;21:00;21:15;468
05.01.2023;21:15;21:30;428
05.01.2023;21:30;21:45;396
05.01.2023;21:45;22:00;380
05.01.2023;22:00;22:15;404
05.01.2023;22:15;22:30;356
05.01.2023;22:30;22:45;344
05.01.2023;22:45;23:00;412
05.01.2023;23:00;23:15;392
05.01.2023;23:15;23:30;400
05.01.2023;23:30;23:45;388
06.01.2023;23:45;00:00;508
06.01.2023;00:00;00:15;632
06.01.2023;00:15;00:30;588
06.01.2023;00:30;00:45;596
06.01.2023;00:45;01:00;580
06.01.2023;01:00;01:15;564
06.01.2023;01:15;01:30;580
06.01.2023;01:30;01:45;528
06.01.2023;01:45;02:00;512
06.01.2023;02:00;02:15;500
06.01.2023;02:15;02:30;480
06.01.2023;02:30;02:45;500
06.01.2023;02:45;03:00;436
06.01.2023;03:00;03:15;388
06.01.2023;03:15;03:30;420
06.01.2023;03:30;03:45;380
06.01.2023;03:45;04:00;364
06.01.2023;04:00;04:15;352
06.01.2023;04:15;04:30;336
06.01.2023;04:30;04:45;348
06.01.2023;04:45;05:00;352
06.01.2023;05:00;05:15;340
06.01.2023;05:15;05:30;340
06.01.2023;05:30;05:45;388
06.01.2023;05:45;06:00;336
06.01.2023;06:00;06:15;332
06.01.2023;06:15;06:30;328
06.01.2023;06:30;06:45;324
06.01.2023;06:45;07:00;324
06.01.2023;07:00;07:15;348
06.01.2023;07:15;07:30;328
06.01.2023;07:30;07:45;340
06.01.2023;07:45;08:00;336
06.01.2023;08:00;08:15;356
06.01.2023;08:15;08:30;364
06.01.2023;08:30;08:45;368
06.01.2023;08:45;09:00;376
06.01.2023;09:00;09:15;396
06.01.2023;09:15;09:30;388
06.01.2023;09:30;09:45;392
06.01.2023;09:45;10:00;408
06.01.2023;10:00;10:15;376
06.01.2023;10:15;10:30;352
06.01.2023;10:30;10:45;316
06.01.2023;10:45;11:00;260
06.01.2023;11:00;11:15;244
06.01.2023;11:15;11:30;208
06.01.2023;11:30;11:45;320
06.01.2023;11:45;12:00;352
06.01.2023;12:00;12:15;368
06.01.2023;12:15;12:30;396
06.01.2023;12:30;12:45;460
06.01.2023;12:45;13:00;332
06.01.2023;13:00;13:15;348
06.01.2023;13:15;13:30;404
06.01.2023;13:30;13:45;512
06.01.2023;13:45;14:00;492
06.01.2023;14:00;14:15;444
06.01.2023;14:15;14:30;444
06.01.2023;14:30;14:45;392
06.01.2023;14:45;15:00;444
06.01.2023;15:00;15:15;460
06.01.2023;15:15;15:30;460
06.01.2023;15:30;15:45;484
06.01.2023;15:45;16:00;520
06.01.2023;16:00;16:15;544
06.01.2023;16:15;16:30;544
06.01.2023;16:30;16:45;564
06.01.2023;16:45;17:00;620
06.01.2023;17:00;17:15;624
06.01.2023;17:15;17:30;648
06.01.2023;17:30;17:45;648
06.01.2023;17:45;18:00;600
06.01.2023;18:00;18:15;596
06.01.2023;18:15;18:30;588
06.01.2023;18:30;18:45;608
06.01.2023;18:45;19:00;616
06.01.2023;19:00;19:15;588
06.01.2023;19:15;19:30;572
06.01.2023;19:30;19:45;572
06.01.2023;19:45;20:00;572
06.01.2023;20:00;20:15;496
06.01.2023;20:15;20:30;496
06.01.2023;20:30;20:45;448
06.01.2023;20:45;21:00;432
06.01.2023;21:00;21:15;416
06.01.2023;21:15;21:30;376
06.01.2023;21:30;21:45;372
06.01.2023;21:45;22:00;384
06.01.2023;22:00;22:15;356
06.01.2023;22:15;22:30;328
06.01.2023;22:30;22:45;340
06.01.2023;22:45;23:00;436
06.01.2023;23:00;23:15;480
06.01.2023;23:15;23:30;496
06.01.2023;23:30;23:45;480
07.01.2023;23:45;00:00;440
07.01.2023;00:00;00:15;456
07.01.2023;00:15;00:30;448
07.01.2023;00:30;00:45;424
07.01.2023;00:45;01:00;416
07.01.2023;01:00;01:15;364
07.01.2023;01:15;01:30;380
07.01.2023;01:30;01:45;332
07.01.2023;01:45;02:00;316
07.01.2023;02:00;02:15;316
07.01.2023;02:15;02:30;316
07.01.2023;02:30;02:45;320
07.01.2023;02:45;03:00;312
07.01.2023;03:00;03:15;300
07.01.2023;03:15;03:30;324
07.01.2023;03:30;03:45;328
07.01.2023;03:45;04:00;328
07.01.2023;04:00;04:15;368
07.01.2023;04:15;04:30;356
07.01.2023;04:30;04:45;360
07.01.2023;04:45;05:00;324
07.01.2023;05:00;05:15;284
07.01.2023;05:15;05:30;292
07.01.2023;05:30;05:45;348
07.01.2023;05:45;06:00;348
07.01.2023;06:00;06:15;364
07.01.2023;06:15;06:30;396
07.01.2023;06:30;06:45;360
07.01.2023;06:45;07:00;360
07.01.2023;07:00;07:15;372
07.01.2023;07:15;07:30;388
07.01.2023;07:30;07:45;372
07.01.2023;07:45;08:00;392
07.01.2023;08:00;08:15;376
07.01.2023;08:15;08:30;408
07.01.2023;08:30;08:45;428
07.01.2023;08:45;09:00;436
07.01.2023;09:00;09:15;432
07.01.2023;09:15;09:30;444
07.01.2023;09:30;09:45;504
07.01.2023;09:45;10:00;544
07.01.2023;10:00;10:15;584
07.01.2023;10:15;10:30;528
07.01.2023;10:30;10:45;544
07.01.2023;10:45;11:00;540
07.01.2023;11:00;11:15;600
07.01.2023;11:15;11:30;564
07.01.2023;11:30;11:45;576
07.01.2023;11:45;12:00;596
07.01.2023;12:00;12:15;612
07.01.2023;12:15;12:30;604
07.01.2023;12:30;12:45;548
07.01.2023;12:45;13:00;532
07.01.2023;13:00;13:15;456
07.01.2023;13:15;13:30;368
07.01.2023;13:30;13:45;256
07.01.2023;13:45;14:00;132
07.01.2023;14:00;14:15;216
07.01.2023;14:15;14:30;196
07.01.2023;14:30;14:45;204
07.01.2023;14:45;15:00;260
07.01.2023;15:00;15:15;324
07.01.2023;15:15;15:30;392
07.01.2023;15:30;15:45;384
07.01.2023;15:45;16:00;408
07.01.2023;16:00;16:15;508
07.01.2023;16:15;16:30;532
07.01.2023;16:30;16:45;564
07.01.2023;16:45;17:00;636
07.01.2023;17:00;17:15;624
07.01.2023;17:15;17:30;636
07.01.2023;17:30;17:45;632
07.01.2023;17:45;18:00;604
07.01.2023;18:00;18:15;604
07.01.2023;18:15;18:30;572
07.01.2023;18:30;18:45;560
07.01.2023;18:45;19:00;616
07.01.2023;19:00;19:15;552
07.01.2023;19:15;19:30;576
07.01.2023;19:30;19:45;536
07.01.2023;19:45;20:00;504
07.01.2023;20:00;20:15;532
07.01.2023;20:15;20:30;460
07.01.2023;20:30;20:45;444
07.01.2023;20:45;21:00;476
07.01.2023;21:00;21:15;464
07.01.2023;21:15;21:30;464
07.01.2023;21:30;21:45;408
07.01.2023;21:45;22:00;404
07.01.2023;22:00;22:15;396
07.01.2023;22:15;22:30;364
07.01.2023;22:30;22:45;384
07.01.2023;22:45;23:00;376
07.01.2023;23:00;23:15;408
07.01.2023;23:15;23:30;420
07.01.2023;23:30;23:45;380
08.01.2023;23:45;00:00;528
08.01.2023;00:00;00:15;608
08.01.2023;00:15;00:30;616
08.01.2023;00:30;00:45;636
08.01.2023;00:45;01:00;596
08.01.2023;01:00;01:15;568
08.01.2023;01:15;01:30;584
08.01.2023;01:30;01:45;532
08.01.2023;01:45;02:00;556
08.01.2023;02:00;02:15;512
08.01.2023;02:15;02:30;472
08.01.2023;02:30;02:45;472
08.01.2023;02:45;03:00;452
08.01.2023;03:00;03:15;416
08.01.2023;03:15;03:30;428
08.01.2023;03:30;03:45;396
08.01.2023;03:45;04:00;392
08.01.2023;04:00;04:15;348
08.01.2023;04:15;04:30;332
08.01.2023;04:30;04:45;336
08.01.2023;04:45;05:00;320
08.01.2023;05:00;05:15;336
08.01.2023;05:15;05:30;384
08.01.2023;05:30;05:45;364
08.01.2023;05:45;06:00;332
08.01.2023;06:00;06:15;316
08.01.2023;06:15;06:30;316
08.01.2023;06:30;06:45;324
08.01.2023;06:45;07:00;340
08.01.2023;07:00;07:15;316
08.01.2023;07:15;07:30;344
08.01.2023;07:30;07:45;360
08.01.2023;07:45;08:00;360
08.01.2023;08:00;08:15;396
08.01.2023;08:15;08:30;416
08.01.2023;08:30;08:45;392
08.01.2023;08:45;09:00;504
08.01.2023;09:00;09:15;504
08.01.2023;09:15;09:30;500
08.01.2023;09:30;09:45;524
08.01.2023;09:45;10:00;532
08.01.2023;10:00;10:15;520
08.01.2023;10:15;10:30;524
08.01.2023;10:30;10:45;488
08.01.2023;10:45;11:00;488
08.01.2023;11:00;11:15;536
08.01.2023;11:15;11:30;568
08.01.2023;11:30;11:45;580
08.01.2023;11:45;12:00;568
08.01.2023;12:00;12:15;552
08.01.2023;12:15;12:30;560
08.01.2023;12:30;12:45;560
08.01.2023;12:45;13:00;512
08.01.2023;13:00;13:15;512
08.01.2023;13:15;13:30;488
08.01.2023;13:30;13:45;476
08.01.2023;13:45;14:00;480
08.01.2023;14:00;14:15;512
08.01.2023;14:15;14:30;516
08.01.2023;14:30;14:45;512
08.01.2023;14:45;15:00;408
08.01.2023;15:00;15:15;412
08.01.2023;15:15;15:30;420
08.01.2023;15:30;15:45;408
08.01.2023;15:45;16:00;460
08.01.2023;16:00;16:15;516
08.01.2023;16:15;16:30;512
08.01.2023;16:30;16:45;532
08.01.2023;16:45;17:00;540
08.01.2023;17:00;17:15;532
08.01.2023;17:15;17:30;564
08.01.2023;17:30;17:45;540
08.01.2023;17:45;18:00;556
08.01.2023;18:00;18:15;588
08.01.2023;18:15;18:30;628
08.01.2023;18:30;18:45;604
08.01.2023;18:45;19:00;588
08.01.2023;19:00;19:15;596
08.01.2023;19:15;19:30;532
08.01.2023;19:30;19:45;560
08.01.2023;19:45;20:00;624
08.01.2023;20:00;20:15;616
08.01.2023;20:15;20:30;584
08.01.2023;20:30;20:45;564
08.01.2023;20:45;21:00;564
08.01.2023;21:00;21:15;528
08.01.2023;21:15;21:30;524
08.01.2023;21:30;21:45;512
08.01.2023;21:45;22:00;488
08.01.2023;22:00;22:15;456
08.01.2023;22:15;22:30;428
08.01.2023;22:30;22:45;416
08.01.2023;22:45;23:00;524
08.01.2023;23:00;23:15;488
08.01.2023;23:15;23:30;464
08.01.2023;23:30;23:45;464
09.01.2023;23:45;00:00;428
09.01.2023;00:00;00:15;416
09.01.2023;00:15;00:30;432
09.01.2023;00:30;00:45;412
09.01.2023;00:45;01:00;400
09.01.2023;01:00;01:15;372
09.01.2023;01:15;01:30;340
09.01.2023;01:30;01:45;332
09.01.2023;01:45;02:00;336
09.01.2023;02:00;02:15;340
09.01.2023;02:15;02:30;356
09.01.2023;02:30;02:45;356
09.01.2023;02:45;03:00;372
09.01.2023;03:00;03:15;356
09.01.2023;03:15;03:30;348
09.01.2023;03:30;03:45;356
09.01.2023;03:45;04:00;368
09.01.2023;04:00;04:15;364
09.01.2023;04:15;04:30;396
09.01.2023;04:30;04:45;388
09.01.2023;04:45;05:00;384
09.01.2023;05:00;05:15;376
09.01.2023;05:15;05:30;420
09.01.2023;05:30;05:45;492
09.01.2023;05:45;06:00;504
09.01.2023;06:00;06:15;484
09.01.2023;06:15;06:30;508
09.01.2023;06:30;06:45;552
09.01.2023;06:45;07:00;540
09.01.2023;07:00;07:15;568
09.01.2023;07:15;07:30;568
09.01.2023;07:30;07:45;636
09.01.2023;07:45;08:00;708
09.01.2023;08:00;08:15;696
09.01.2023;08:15;08:30;660
09.01.2023;08:30;08:45;604
09.01.2023;08:45;09:00;668
09.01.2023;09:00;09:15;708
09.01.2023;09:15;09:30;732
09.01.2023;09:30;09:45;764
09.01.2023;09:45;10:00;768
09.01.2023;10:00;10:15;784
09.01.2023;10:15;10:30;764
09.01.2023;10:30;10:45;756
09.01.2023;10:45;11:00;708
09.01.2023;11:00;11:15;660
09.01.2023;11:15;11:30;752
09.01.2023;11:30;11:45;744
09.01.2023;11:45;12:00;648
09.01.2023;12:00;12:15;576
09.01.2023;12:15;12:30;604
09.01.2023;12:30;12:45;680
09.01.2023;12:45;13:00;704
09.01.2023;13:00;13:15;568
09.01.2023;13:15;13:30;520
09.01.2023;13:30;13:45;668
09.01.2023;13:45;14:00;576
09.01.2023;14:00;14:15;684
09.01.2023;14:15;14:30;616
09.01.2023;14:30;14:45;616
09.01.2023;14:45;15:00;668
09.01.2023;15:00;15:15;644
09.01.2023;15:15;15:30;696
09.01.2023;15:30;15:45;676
09.01.2023;15:45;16:00;644
09.01.2023;16:00;16:15;616
09.01.2023;16:15;16:30;612
09.01.2023;16:30;16:45;632
09.01.2023;16:45;17:00;616
09.01.2023;17:00;17:15;660
09.01.2023;17:15;17:30;668
09.01.2023;17:30;17:45;640
09.01.2023;17:45;18:00;632
09.01.2023;18:00;18:15;624
09.01.2023;18:15;18:30;620
09.01.2023;18:30;18:45;600
09.01.2023;18:45;19:00;596
09.01.2023;19:00;19:15;604
09.01.2023;19:15;19:30;580
09.01.2023;19:30;19:45;560